Location: Les Thiberg�res
(47.8554°N, 1.0978°W)
Time: 04:57:26
(UTC+00:00)

SL-16 R/B - Pass Details

Date: 17 February 2020
Orbit: 843 x 847 km, 71.0° (Epoch: 29 March)

Event Time Altitude Azimuth Distance (km) Brightness Sun altitude
Exits shadow 04:41:52 56° 210° (SSW) 998 2.3 -25.1°
Maximum altitude 04:43:09 88° 298° (WNW) 853 2.1 -24.9°
Drops below altitude 10° 04:48:51 10° 27° (NNE) 2,476 5.1 -24.0°
Sets 04:51:18 0° 28° (NNE) 3,415 5.9 -23.6°
